TimeCDT,TemperatureF,Dew PointF,Humidity,Sea Level PressureIn,VisibilityMPH,Wind Direction,Wind SpeedMPH,Gust SpeedMPH,PrecipitationIn,Events,Conditions,WindDirDegrees,DateUTC
12:12 AM,57.2,55.4,94,29.97,4.0,SE,10.4,-,0.08,Rain,Heavy Rain,130,2013-04-28 05:12:00
12:53 AM,59.0,55.9,90,29.97,7.0,SSE,11.5,19.6,0.18,Rain,Rain,150,2013-04-28 05:53:00
1:53 AM,60.1,55.9,86,29.95,5.0,SE,15.0,23.0,0.14,Rain,Heavy Rain,140,2013-04-28 06:53:00
2:53 AM,60.1,55.9,86,29.92,10.0,SE,10.4,18.4,0.11,,Overcast,130,2013-04-28 07:53:00
3:53 AM,60.1,55.0,83,29.93,10.0,SSE,16.1,25.3,N/A,,Overcast,150,2013-04-28 08:53:00
4:53 AM,60.1,55.0,83,29.91,10.0,SSE,13.8,-,N/A,,Mostly Cloudy,160,2013-04-28 09:53:00
5:53 AM,60.1,55.0,83,29.89,10.0,SSE,11.5,-,0.00,,Overcast,150,2013-04-28 10:53:00
6:16 AM,60.8,55.4,82,29.90,10.0,SSE,6.9,-,N/A,,Overcast,160,2013-04-28 11:16:00
6:43 AM,60.8,55.4,82,29.91,10.0,SSE,10.4,17.3,N/A,,Overcast,160,2013-04-28 11:43:00
6:53 AM,60.1,55.0,83,29.91,10.0,SSE,12.7,-,N/A,,Overcast,160,2013-04-28 11:53:00
7:53 AM,63.0,57.0,81,29.93,10.0,South,12.7,-,N/A,,Mostly Cloudy,170,2013-04-28 12:53:00
8:06 AM,62.6,55.4,77,29.94,9.0,WSW,11.5,23.0,0.01,Rain,Light Rain,240,2013-04-28 13:06:00
8:32 AM,64.4,57.2,77,29.94,10.0,South,9.2,-,0.01,,Overcast,190,2013-04-28 13:32:00
8:53 AM,64.0,57.9,80,29.93,10.0,SSW,11.5,-,0.01,,Overcast,200,2013-04-28 13:53:00
9:08 AM,64.4,57.2,77,29.94,10.0,SW,10.4,-,N/A,,Overcast,220,2013-04-28 14:08:00
9:53 AM,64.9,57.9,78,29.94,10.0,SSW,10.4,-,N/A,,Overcast,210,2013-04-28 14:53:00
10:10 AM,64.4,57.2,77,29.95,10.0,WSW,11.5,16.1,N/A,,Overcast,240,2013-04-28 15:10:00
10:44 AM,66.2,57.2,73,29.94,10.0,WSW,11.5,-,N/A,,Scattered Clouds,240,2013-04-28 15:44:00
10:53 AM,66.9,57.0,70,29.94,10.0,WSW,10.4,-,N/A,,Mostly Cloudy,240,2013-04-28 15:53:00
11:08 AM,68.0,55.4,64,29.94,10.0,SW,13.8,18.4,N/A,,Mostly Cloudy,230,2013-04-28 16:08:00
11:41 AM,69.8,55.4,60,29.93,10.0,WSW,10.4,17.3,N/A,,Overcast,240,2013-04-28 16:41:00
11:48 AM,66.2,53.6,64,29.93,10.0,WSW,9.2,17.3,N/A,,Mostly Cloudy,240,2013-04-28 16:48:00
11:53 AM,66.9,54.0,63,29.93,10.0,WSW,13.8,19.6,N/A,,Mostly Cloudy,250,2013-04-28 16:53:00
12:53 PM,66.9,54.0,63,29.93,10.0,WSW,11.5,-,N/A,,Overcast,250,2013-04-28 17:53:00
1:53 PM,66.9,54.0,63,29.92,10.0,West,12.7,18.4,N/A,,Overcast,260,2013-04-28 18:53:00
2:53 PM,66.0,54.0,65,29.91,10.0,West,8.1,-,N/A,,Overcast,280,2013-04-28 19:53:00
3:44 PM,64.4,53.6,68,29.91,10.0,West,12.7,-,N/A,,Overcast,280,2013-04-28 20:44:00
3:53 PM,64.9,52.0,63,29.90,10.0,West,6.9,18.4,N/A,,Overcast,280,2013-04-28 20:53:00
4:53 PM,64.9,52.0,63,29.92,10.0,West,9.2,-,N/A,,Overcast,260,2013-04-28 21:53:00
5:53 PM,64.0,52.0,65,29.91,10.0,WNW,9.2,-,N/A,,Mostly Cloudy,290,2013-04-28 22:53:00
6:53 PM,63.0,51.1,65,29.92,10.0,NW,6.9,-,N/A,,Overcast,310,2013-04-28 23:53:00
7:53 PM,62.1,52.0,70,29.94,10.0,West,5.8,-,N/A,,Overcast,280,2013-04-29 00:53:00
8:53 PM,59.0,51.1,75,29.95,10.0,WNW,3.5,-,N/A,,Clear,300,2013-04-29 01:53:00
9:53 PM,59.0,52.0,78,29.96,10.0,Calm,Calm,-,N/A,,Overcast,0,2013-04-29 02:53:00
10:53 PM,59.0,52.0,78,29.97,10.0,Calm,Calm,-,N/A,,Overcast,0,2013-04-29 03:53:00
11:53 PM,59.0,52.0,78,29.97,10.0,SW,3.5,-,N/A,,Overcast,230,2013-04-29 04:53:00